Location: Ostrava
(49.8330°N, 18.2830°E)
Time: 19:41:55
(UTC+01:00)

Cosmos 2221 - Visible Passes

Search period start: 05 March 2015 00:00
Search period end: 15 March 2015 00:00
Orbit: 597 x 619 km, 82.5° (Epoch: 04 March)

Date Brightness Start Highest point End Pass type
(mag) Time Alt. Az. Time Alt. Az. Time Alt. Az.
11 Mar 5.3 20:59:11 11° NNE 20:59:11 11° NNE 20:59:19 10° NNE visible
12 Mar 5.1 21:12:32 15° N 21:12:32 15° N 21:13:19 10° N visible
13 Mar 4.9 21:25:49 19° N 21:25:49 19° N 21:27:11 10° N visible
14 Mar 4.5 20:02:07 16° NE 20:02:07 16° NE 20:03:14 10° NNE visible
14 Mar 4.9 21:39:00 21° NNW 21:39:00 21° NNW 21:40:55 10° N visible
